www.pogodaiklimat.ru

Погода и климат >> Архив погоды >> Россия >> Свердловская область >> Ивдель


ПОГОДА в Ивдель

  • Прогноз погоды в Ивдель
  • Монитор погоды в Ивдель
  • Климат города

АРХИВ ПОГОДЫ в Ивдель

Время (UTC), дата Ветер
(напр.,м/с)
 
Видим.   Явления Облачность Т
(С)
Тd
(С)
f
(%)
Тe
(С)
Тes
(С)
Комфортность P
(гПа)
Po
(гПа)
Тmin
(С)
Tmax
(С)
R
(мм)
R24
(мм)
S
(см)
06 17.08 СЗ 3 50 км 5/5 600 м
[Cu hum]
+16.5 +5.6 48 +16 +20 1025.4 1014.1
09 17.08 С 3 50 км 8/8 600 м
[Cb cap Ci fib]
+17.1 +3.9 41 +17 +19 1026.3 1015.0
12 17.08 С 1 50 км 8/8 600 м
[Cb cap]
+17.0 +5.0 45 +18 +19 1026.7 1015.4
15 17.08 штиль 0 50 км 3/1 1000 м
[Sc Ci fib]
+16.5 +6.5 52 +16 +17 1027.2 1015.9 +18.9
18 17.08 СЗ 2 10 км ясно +9.3 +5.7 78 +8 +8 1028.3 1016.7
21 17.08 СЗ 1 10 км ясно +6.6 +4.4 86 +6 +6 1028.8 1017.1
00 18.08 штиль 0 50 км 9/0
[Ci fib]
+4.3 +2.8 90 +3 +3 1029.1 1017.2
03 18.08 СЗ 1 50 км 8/0
[Ci fib]
+9.7 +5.0 73 +9 +11 1028.8 1017.2 +4.0
06 18.08 ЮЗ 1 50 км 8/0
[Cc]
+16.3 +5.5 49 +17 +25 1027.9 1016.6
09 18.08 ЮЗ 1 50 км 8/4 600 м
[Cu hum Ci fib]
+19.4 +5.8 41 +21 +27 комфорт 1026.4 1015.2
12 18.08 Ю 1 50 км 8/4 600 м
[Cu Sc Ac trans Ci fib]
+20.8 +7.0 41 +23 +25 комфорт 1024.1 1013.0
15 18.08 З 1 50 км 9/9 600 м
[Cb cap]
+17.3 +9.2 59 +18 +18 1023.1 1011.9 +21.3
18 18.08 ЮВ 1 10 км 9/9 600 м
[Cb cap]
+12.3 +9.3 82 +12 +12 1023.2 1011.8
21 18.08 З 2 10 км 9/9 600 м
[Cb cap]
+15.0 +9.5 70 +15 +15 1021.9 1010.6
00 19.08 СВ 1 50 км 9/8 1000 м
[Sc Ci fib]
+11.8 +9.5 86 +12 +12 1021.3 1009.9
03 19.08 штиль 0 50 км 10/3 1000 м
[Sc Ci fib]
+15.9 +10.8 72 +16 +17 1021.3 1010.1 +10.2
06 19.08 З 3 50 км 8/1 600 м
[Cu hum Cc]
+20.9 +11.9 56 +23 +28 комфорт 1020.8 1009.7
09 19.08 З 3 50 км 10/9 600 м
[Cb cap Ci fib]
+22.2 +11.6 51 +24 +25 комфорт 1020.3 1009.3
12 19.08 З 4 50 км 10/4 600 м
[Cb cap Ac trans Ci fib]
+20.9 +12.5 59 +23 +24 комфорт 1020.4 1009.3
15 19.08 штиль 0 50 км 9/3 600 м
[Cb cap Ac trans Ci fib]
+18.6 +12.7 69 +19 +19 1020.6 1009.5 +22.7
18 19.08 штиль 0 10 км 9/6 600 м
[Cb cap Ac trans]
+14.9 +12.1 83 +15 +15 1020.8 1009.5
21 19.08 В 1 10 км 3/0
[Ci fib]
+12.3 +10.8 91 +12 +12 1020.1 1008.7
00 20.08 штиль 0 35 км 4/0
[Ac trans Ci fib]
+8.9 +7.7 92 +8 +8 1020.0 1008.5
03 20.08 штиль 0 50 км {туман} 9/0
[Ac lent Ci fib]
+13.2 +10.5 84 +13 +14 1018.9 1007.6 +7.8
06 20.08 ЮВ 1 50 км {туман} 6/3 600 м
[Cu Sc Ac trans Ci fib]
+20.5 +11.8 57 +24 +29 комфорт 1017.6 1006.6
09 20.08 З 2 50 км 9/8 600 м
[Cb cap Ci fib]
+21.4 +13.5 61 +24 +26 комфорт 1017.1 1006.1
12 20.08 СЗ 2 50 км 9/9 600 м
[Cb cap]
+20.1 +13.9 67 +23 +23 комфорт 1017.8 1006.8
15 20.08 ЮЗ 1 50 км 8/4 600 м
[Cb cap Ci fib]
+18.5 +15.0 80 +20 +20 1018.2 1007.1 +22.0
18 20.08 С 1 10 км 8/8 600 м
[Cb cap]
+14.2 +12.9 92 +14 +14 1019.1 1007.8
21 20.08 СЗ 1 10 км 4/3 1000 м
[Sc Ci fib]
+12.2 +11.0 92 +12 +12 1019.0 1007.7
00 21.08 З 1 50 км 8/3 1000 м
[Sc Ci fib]
+11.4 +10.2 92 +11 +11 1019.7 1008.3
03 21.08 З 2 40 км 9/0
[Ac trans Ci]
+18.1 +13.7 75 +19 +20 1019.5 1008.3 +10.9
06 21.08 ЮЗ 3 50 км 9/0
[Ac trans Ci fib]
+22.9 +14.9 61 +27 +32 душно 1018.9 1007.9
09 21.08 ЮЗ 1 35 км 9/3 600 м
[Cu hum Ac trans Ci fib]
+26.6 +16.8 55 +30 +34 душно 1018.1 1007.3
12 21.08 З 2 35 км 9/1 600 м
[Cu hum Ac trans Ci fib]
+28.2 +15.9 47 +31 +33 душно 1017.7 1006.9
15 21.08 З 2 40 км 3/1 600 м
[Cb cap Ci fib]
+25.2 +16.6 59 +29 +29 душно 1018.2 1007.3 +28.4
18 21.08 ЮВ 1 10 км 3/0
[Ci fib]
+18.6 +16.5 88 +21 +21 комфорт 1019.4 1008.3
21 21.08 штиль 0 10 км ясно +16.5 +15.3 93 +16 +16 1020.8 1009.6
00 22.08 штиль 0 800 м мгла {туман} 3/0
[Ci fib]
+13.6 +12.5 93 +13 +13 1022.2 1010.8
03 22.08 штиль 0 35 км {туман} 8/0
[Ci fib]
+18.0 +15.7 86 +18 +20 1023.4 1012.2 +12.7
06 22.08 З 2 35 км {туман} 10/0
[Ci sp]
+25.7 +16.5 57 +29 +35 душно 1023.6 1012.7
09 22.08 СЗ 2 45 км 8/8 600 м
[Cu hum]
+28.5 +14.7 43 +31 +33 душно 1023.1 1012.3
12 22.08 З 1 50 км 6/6 600 м
[Cb cap]
+28.2 +13.9 41 +30 +32 жарко 1023.0 1012.2
15 22.08 З 1 25 км 3/0
[Ci fib]
+23.4 +18.0 72 +29 +29 душно 1022.9 1011.9 +29.3
18 22.08 штиль 0 10 км ясно +16.2 +14.9 92 +16 +16 1023.9 1012.6
21 22.08 штиль 0 10 км ясно +13.9 +12.4 91 +13 +13 1024.0 1012.6
00 23.08 ЮВ 1 10 км 3/0
[Ci fib]
+13.6 +12.4 92 +14 +14 1023.9 1012.5
03 23.08 ЮВ 1 26 км 8/0
[Ci fib]
+17.3 +14.8 85 +18 +20 1024.3 1013.1 +12.7
06 23.08 ЮВ 3 25 км 8/0
[Ac lent Ci fib]
+26.4 +18.6 62 +31 +36 душно 1023.8 1012.9
09 23.08 ЮЗ 2 23 км 9/5 600 м
[Cb cap Ci fib]
+29.3 +15.5 43 +32 +36 душно 1022.9 1012.1
12 23.08 ЮЗ 2 25 км 8/6 600 м
[Cb cap Ci fib]
+29.3 +15.3 43 +32 +33 душно 1022.2 1011.4
15 23.08 ЮЗ 2 35 км 4/4 600 м
[Cb cap]
+24.5 +16.9 63 +28 +28 душно 1021.6 1010.7 +29.7
18 23.08 штиль 0 10 км 3/0
[Ci fib]
+17.0 +15.0 88 +17 +17 1022.8 1011.6
21 23.08 Ю 1 10 км ясно +14.8 +13.4 91 +15 +15 1023.1 1011.8
00 24.08 штиль 0 20 км 1/0
[Ci fib]
+13.4 +12.1 92 +13 +13 1023.7 1012.3
03 24.08 штиль 0 50 км ясно +18.1 +15.0 82 +18 +21 1023.7 1012.5 +13.0

 

Местоположение метеостанции Ивдель (Свердловская область, Россия): широта 60.68 долгота 60.45 высота над уровнем моря 94 м.

В архиве по умолчанию представлена погода в Ивдель за последнюю неделю. Архивные данные за месяц целиком и за предыдущие месяцы, начиная с января 2011 года, Вы можете получить, выбрав интересующий диапазон дат из раскрывающегося списка и нажав кнопку "Ввод!".

Внимание! Время в таблицах - всемирное. Для получения местного времени необходимо прибавить поправку, которая в Ивдель равна 5 ч.

Смотрите также архив погоды в соседних городах и на ближайших метеорологических станциях:

Погода в Североуральске (Свердловская область, Россия) (56 км)
Погода в Атымье (Свердловская область, Россия) (103 км)
Погода в Карпинске (Свердловская область, Россия) (106 км)
Погода в Серове (Свердловская область, Россия) (120 км)
Погода в Кытлыме (Свердловская область, Россия) (148 км)
Погода в Гари (Свердловская область, Россия) (174 км)
Погода в Няксимволе (Ханты-Мансийский АО, Россия) (196 км)
Погода в Верхотурье (Свердловская область, Россия) (202 км)
Погода в Ныробе (Пермский край, Россия) (203 км)
Погода в Шаиме (Ханты-Мансийский АО, Россия) (210 км)

Пояснения к столбцам:

Ветер - указаны скорость ветра в м/с - средняя за 10 мин, порывы в срок и между сроками (в фигурных скобках) и направление, откуда дует ветер: С - северный, СВ - северо-восточный, В - восточный, ЮВ - юго-восточный, Ю - южный, ЮЗ - юго-западный, З - западный, СЗ - северо-западный.
Видимость - горизонтальная дальность видимости в метрах или километрах. При видимости от 1 до 10 км при отсутствии осадков обычно наблюдается дымка, при ухудшении видимости до 1 км и менее - туман. В сухую погоду видимость может ухудшаться дымом, пылью или мглою.
Явления - указаны атмосферные явления, наблюдавшиеся в срок или в последний час перед сроком; фигурными скобками обозначены явления, наблюдавшиеся между сроками (за 1-3 часа до срока); квадратными скобками обозначены град или гололедные отложения с указанием их диаметра в мм.
Облачность - указаны через наклонную черту общая и нижняя облачность в баллах и высота нижней границы облаков в метрах; квадратными скобками обозначены формы облаков: Ci - перистые, Cs - перисто-слоистые, Cc - перисто-кучевые, Ac - высококучевые, As - высокослоистые, Sc - слоисто-кучевые, Ns - слоисто-дождевые, Cu - кучевые, Cb - кучево-дождевые. Подробнее классификацию облаков см. в Атласе облаков (PDF).
T - Температура воздуха - температура, измеренная на высоте 2 м над землей.
Td - Температура точки росы - температура, при понижении до которой содержащийся в воздухе водяной пар достигнет насыщения.
f - Относительная влажность воздуха - влажноcть воздуха, измеренная на высоте 2 м над землей.
Te - Эффективная температура - температура, которую ощущает одетый по сезону человек в тени. Характеристика душности погоды. При расчете учитывается влияние влажности воздуха и скорости ветра на теплоощущения человека.
Tes - Эффективная температура на солнце - температура, которую ощущает человек, с поправкой на солнечный нагрев. Характеристика знойности погоды. Зависит от высоты солнца над горизонтом, облачности и скорости ветра. Ночью, в пасмурную погоду, а также при ветре 12 м/с и более поправка равна нулю.
P - Атмосферное давление - приведенное к уровню моря атмосферное давление.
Po - Атмосферное давление - измеренное на уровне метеостанции атмосферное давление.
Tmin - Минимальная температура - минимум температуры воздуха на высоте 2 м над землей.
Tmax - Максимальная температура - максимум температуры воздуха на высоте 2 м над землей.
R - Количество осадков - Количество выпавших осадков за период времени, мм. При наведении курсора мыши на число - период времени, за который выпало указанное количество осадков.
R24 - Количество осадков - Количество выпавших осадков за 24 часа, мм.
S - Снежный покров - Высота снежного покрова, см. При наведении курсора мыши на число - состояние снежного покрова и степень покрытия местности в баллах.